Year,Month,Day,Hour,Minute,Value (Times are PST for temperature in C)
2011,05,20,00,00,10.60
2011,05,20,00,01,10.60
2011,05,20,00,02,10.60
2011,05,20,00,03,10.60
2011,05,20,00,04,10.50
2011,05,20,00,05,10.50
2011,05,20,00,06,10.50
2011,05,20,00,07,10.40
2011,05,20,00,08,10.40
2011,05,20,00,09,10.40
2011,05,20,00,10,10.40
2011,05,20,00,11,10.40
2011,05,20,00,12,10.40
2011,05,20,00,13,10.40
2011,05,20,00,14,10.30
2011,05,20,00,15,10.30
2011,05,20,00,16,10.30
2011,05,20,00,17,10.30
2011,05,20,00,18,10.30
2011,05,20,00,19,10.30
2011,05,20,00,20,10.20
2011,05,20,00,21,10.20
2011,05,20,00,22,10.20
2011,05,20,00,23,10.10
2011,05,20,00,24,10.10
2011,05,20,00,25,10.10
2011,05,20,00,26,10.10
2011,05,20,00,27,10.10
2011,05,20,00,28,10.10
2011,05,20,00,29,10.10
2011,05,20,00,30,10.00
2011,05,20,00,31,10.00
2011,05,20,00,32,10.00
2011,05,20,00,33,10.00
2011,05,20,00,34,10.00
2011,05,20,00,35,9.90
2011,05,20,00,36,9.90
2011,05,20,00,37,9.90
2011,05,20,00,38,9.90
2011,05,20,00,39,9.90
2011,05,20,00,40,9.90
2011,05,20,00,41,9.90
2011,05,20,00,42,9.90
2011,05,20,00,43,9.90
2011,05,20,00,44,9.90
2011,05,20,00,45,9.90
2011,05,20,00,46,9.90
2011,05,20,00,47,9.80
2011,05,20,00,48,9.80
2011,05,20,00,49,9.80
2011,05,20,00,50,9.80
2011,05,20,00,51,9.80
2011,05,20,00,52,9.80
2011,05,20,00,53,9.80
2011,05,20,00,54,9.80
2011,05,20,00,55,9.80
2011,05,20,00,56,9.80
2011,05,20,00,57,9.70
2011,05,20,00,58,9.70
2011,05,20,00,59,9.70
2011,05,20,01,00,9.70
2011,05,20,01,01,9.70
2011,05,20,01,02,9.70
2011,05,20,01,03,9.70
2011,05,20,01,04,9.60
2011,05,20,01,05,9.60
2011,05,20,01,06,9.60
2011,05,20,01,07,9.60
2011,05,20,01,08,9.60
2011,05,20,01,09,9.50
2011,05,20,01,10,9.50
2011,05,20,01,11,9.50
2011,05,20,01,12,9.50
2011,05,20,01,13,9.40
2011,05,20,01,14,9.40
2011,05,20,01,15,9.50
2011,05,20,01,16,9.50
2011,05,20,01,17,9.50
2011,05,20,01,18,9.60
2011,05,20,01,19,9.60
2011,05,20,01,20,9.60
2011,05,20,01,21,9.60
2011,05,20,01,22,9.60
2011,05,20,01,23,9.60
2011,05,20,01,24,9.60
2011,05,20,01,25,9.60
2011,05,20,01,26,9.60
2011,05,20,01,27,9.60
2011,05,20,01,28,9.60
2011,05,20,01,29,9.60
2011,05,20,01,30,9.60
2011,05,20,01,31,9.50
2011,05,20,01,32,9.50
2011,05,20,01,33,9.50
2011,05,20,01,34,9.50
2011,05,20,01,35,9.50
2011,05,20,01,36,9.50
2011,05,20,01,37,9.50
2011,05,20,01,38,9.50
2011,05,20,01,39,9.50
2011,05,20,01,40,9.60
2011,05,20,01,41,9.50
2011,05,20,01,42,9.50
2011,05,20,01,43,9.50
2011,05,20,01,44,9.50
2011,05,20,01,45,9.50
2011,05,20,01,46,9.40
2011,05,20,01,47,9.40
2011,05,20,01,48,9.40
2011,05,20,01,49,9.40
2011,05,20,01,50,9.40
2011,05,20,01,51,9.40
2011,05,20,01,52,9.40
2011,05,20,01,53,9.40
2011,05,20,01,54,9.40
2011,05,20,01,55,9.50
2011,05,20,01,56,9.50
2011,05,20,01,57,9.50
2011,05,20,01,58,9.50
2011,05,20,01,59,9.40
2011,05,20,02,00,9.40
2011,05,20,02,01,9.40
2011,05,20,02,02,9.40
2011,05,20,02,03,9.40
2011,05,20,02,04,9.30
2011,05,20,02,05,9.30
2011,05,20,02,06,9.30
2011,05,20,02,07,9.30
2011,05,20,02,08,9.30
2011,05,20,02,09,9.30
2011,05,20,02,10,9.30
2011,05,20,02,11,9.30
2011,05,20,02,12,9.30
2011,05,20,02,13,9.30
2011,05,20,02,14,9.40
2011,05,20,02,15,9.40
2011,05,20,02,16,9.40
2011,05,20,02,17,9.30
2011,05,20,02,18,9.40
2011,05,20,02,19,9.40
2011,05,20,02,20,9.30
2011,05,20,02,21,9.30
2011,05,20,02,22,9.40
2011,05,20,02,23,9.30
2011,05,20,02,24,9.30
2011,05,20,02,25,9.30
2011,05,20,02,26,9.30
2011,05,20,02,27,9.30
2011,05,20,02,28,9.30
2011,05,20,02,29,9.30
2011,05,20,02,30,9.30
2011,05,20,02,31,9.20
2011,05,20,02,32,9.20
2011,05,20,02,33,9.20
2011,05,20,02,34,9.10
2011,05,20,02,35,9.10
2011,05,20,02,36,9.10
2011,05,20,02,37,9.10
2011,05,20,02,38,9.10
2011,05,20,02,39,9.10
2011,05,20,02,40,9.00
2011,05,20,02,41,9.00
2011,05,20,02,42,8.90
2011,05,20,02,43,8.90
2011,05,20,02,44,8.90
2011,05,20,02,45,8.90
2011,05,20,02,46,8.80
2011,05,20,02,47,8.80
2011,05,20,02,48,8.80
2011,05,20,02,49,8.80
2011,05,20,02,50,8.80
2011,05,20,02,51,8.80
2011,05,20,02,52,8.80
2011,05,20,02,53,8.80
2011,05,20,02,54,8.80
2011,05,20,02,55,8.80
2011,05,20,02,56,8.80
2011,05,20,02,57,8.80
2011,05,20,02,58,8.80
2011,05,20,02,59,8.80
2011,05,20,03,00,8.80
2011,05,20,03,01,8.80
2011,05,20,03,02,8.80
2011,05,20,03,03,8.70
2011,05,20,03,04,8.70
2011,05,20,03,05,8.70
2011,05,20,03,06,8.70
2011,05,20,03,07,8.70
2011,05,20,03,08,8.70
2011,05,20,03,09,8.70
2011,05,20,03,10,8.70
2011,05,20,03,11,8.70
2011,05,20,03,12,8.70
2011,05,20,03,13,8.70
2011,05,20,03,14,8.60
2011,05,20,03,15,8.60
2011,05,20,03,16,8.60
2011,05,20,03,17,8.60
2011,05,20,03,18,8.60
2011,05,20,03,19,8.50
2011,05,20,03,20,8.50
2011,05,20,03,21,8.50
2011,05,20,03,22,8.50
2011,05,20,03,23,8.50
2011,05,20,03,24,8.50
2011,05,20,03,25,8.50
2011,05,20,03,26,8.50
2011,05,20,03,27,8.60
2011,05,20,03,28,8.60
2011,05,20,03,29,8.60
2011,05,20,03,30,8.60
2011,05,20,03,31,8.60
2011,05,20,03,32,8.60
2011,05,20,03,33,8.60
2011,05,20,03,34,8.50
2011,05,20,03,35,8.50
2011,05,20,03,36,8.50
2011,05,20,03,37,8.40
2011,05,20,03,38,8.40
2011,05,20,03,39,8.40
2011,05,20,03,40,8.30
2011,05,20,03,41,8.30
2011,05,20,03,42,8.30
2011,05,20,03,43,8.30
2011,05,20,03,44,8.30
2011,05,20,03,45,8.30
2011,05,20,03,46,8.30
2011,05,20,03,47,8.30
2011,05,20,03,48,8.30
2011,05,20,03,49,8.40
2011,05,20,03,50,8.40
2011,05,20,03,51,8.40
2011,05,20,03,52,8.40
2011,05,20,03,53,8.40
2011,05,20,03,54,8.40
2011,05,20,03,55,8.30
2011,05,20,03,56,8.30
2011,05,20,03,57,8.30
2011,05,20,03,58,8.30
2011,05,20,03,59,8.30
2011,05,20,04,00,8.20
2011,05,20,04,01,8.20
2011,05,20,04,02,8.20
2011,05,20,04,03,8.20
2011,05,20,04,04,8.10
2011,05,20,04,05,8.10
2011,05,20,04,06,8.00
2011,05,20,04,07,8.00
2011,05,20,04,08,8.00
2011,05,20,04,09,8.00
2011,05,20,04,10,7.90
2011,05,20,04,11,7.90
2011,05,20,04,12,7.90
2011,05,20,04,13,7.90
2011,05,20,04,14,7.90
2011,05,20,04,15,7.80
2011,05,20,04,16,7.80
2011,05,20,04,17,7.80
2011,05,20,04,18,7.80
2011,05,20,04,19,7.70
2011,05,20,04,20,7.70
2011,05,20,04,21,7.70
2011,05,20,04,22,7.70
2011,05,20,04,23,7.70
2011,05,20,04,24,7.60
2011,05,20,04,25,7.60
2011,05,20,04,26,7.60
2011,05,20,04,27,7.60
2011,05,20,04,28,7.60
2011,05,20,04,29,7.60
2011,05,20,04,30,7.60
2011,05,20,04,31,7.60
2011,05,20,04,32,7.60
2011,05,20,04,33,7.60
2011,05,20,04,34,7.60
2011,05,20,04,35,7.50
2011,05,20,04,36,7.50
2011,05,20,04,37,7.50
2011,05,20,04,38,7.40
2011,05,20,04,39,7.40
2011,05,20,04,40,7.40
2011,05,20,04,41,7.40
2011,05,20,04,42,7.30
2011,05,20,04,43,7.30
2011,05,20,04,44,7.30
2011,05,20,04,45,7.30
2011,05,20,04,46,7.30
2011,05,20,04,47,7.20
2011,05,20,04,48,7.20
2011,05,20,04,49,7.20
2011,05,20,04,50,7.20
2011,05,20,04,51,7.20
2011,05,20,04,52,7.20
2011,05,20,04,53,7.20
2011,05,20,04,54,7.20
2011,05,20,04,55,7.20
2011,05,20,04,56,7.20
2011,05,20,04,57,7.20
2011,05,20,04,58,7.20
2011,05,20,04,59,7.20
2011,05,20,05,00,7.20
2011,05,20,05,01,7.20
2011,05,20,05,02,7.20
2011,05,20,05,03,7.20
2011,05,20,05,04,7.20
2011,05,20,05,05,7.20
2011,05,20,05,06,7.20
2011,05,20,05,07,7.20
2011,05,20,05,08,7.20
2011,05,20,05,09,7.10
2011,05,20,05,10,7.10
2011,05,20,05,11,7.10
2011,05,20,05,12,7.10
2011,05,20,05,13,7.10
2011,05,20,05,14,7.10
2011,05,20,05,15,7.00
2011,05,20,05,16,7.00
2011,05,20,05,17,6.90
2011,05,20,05,18,6.90
2011,05,20,05,19,6.90
2011,05,20,05,20,6.90
2011,05,20,05,21,6.80
2011,05,20,05,22,6.80
2011,05,20,05,23,6.80
2011,05,20,05,24,6.80
2011,05,20,05,25,6.80
2011,05,20,05,26,6.80
2011,05,20,05,27,6.80
2011,05,20,05,28,6.70
2011,05,20,05,29,6.70
2011,05,20,05,30,6.70
2011,05,20,05,31,6.70
2011,05,20,05,32,6.70
2011,05,20,05,33,6.70
2011,05,20,05,34,6.70
2011,05,20,05,35,6.70
2011,05,20,05,36,6.70
2011,05,20,05,37,6.70
2011,05,20,05,38,6.70
2011,05,20,05,39,6.60
2011,05,20,05,40,6.60
2011,05,20,05,41,6.60
2011,05,20,05,42,6.60
2011,05,20,05,43,6.60
2011,05,20,05,44,6.60
2011,05,20,05,45,6.70
2011,05,20,05,46,6.70
2011,05,20,05,47,6.70
2011,05,20,05,48,6.70
2011,05,20,05,49,6.80
2011,05,20,05,50,6.80
2011,05,20,05,51,6.80
2011,05,20,05,52,6.80
2011,05,20,05,53,6.80
2011,05,20,05,54,6.80
2011,05,20,05,55,6.80
2011,05,20,05,56,6.80
2011,05,20,05,57,6.80
2011,05,20,05,58,6.80
2011,05,20,05,59,6.80
2011,05,20,06,00,6.80
2011,05,20,06,01,6.80
2011,05,20,06,02,6.80
2011,05,20,06,03,6.90
2011,05,20,06,04,6.90
2011,05,20,06,05,6.90
2011,05,20,06,06,7.00
2011,05,20,06,07,6.90
2011,05,20,06,08,6.90
2011,05,20,06,09,6.90
2011,05,20,06,10,7.00
2011,05,20,06,11,7.00
2011,05,20,06,12,7.10
2011,05,20,06,13,7.20
2011,05,20,06,14,7.20
2011,05,20,06,15,7.30
2011,05,20,06,16,7.40
2011,05,20,06,17,7.50
2011,05,20,06,18,7.50
2011,05,20,06,19,7.60
2011,05,20,06,20,7.70
2011,05,20,06,21,7.70
2011,05,20,06,22,7.70
2011,05,20,06,23,7.80
2011,05,20,06,24,7.80
2011,05,20,06,25,7.90
2011,05,20,06,26,7.90
2011,05,20,06,27,8.00
2011,05,20,06,28,8.10
2011,05,20,06,29,8.20
2011,05,20,06,30,8.30
2011,05,20,06,31,8.40
2011,05,20,06,32,8.40
2011,05,20,06,33,8.50
2011,05,20,06,34,8.50
2011,05,20,06,35,8.60
2011,05,20,06,36,8.70
2011,05,20,06,37,8.70
2011,05,20,06,38,8.80
2011,05,20,06,39,8.80
2011,05,20,06,40,8.90
2011,05,20,06,41,8.90
2011,05,20,06,42,9.00
2011,05,20,06,43,9.00
2011,05,20,06,44,9.10
2011,05,20,06,45,9.10
2011,05,20,06,46,9.20
2011,05,20,06,47,9.20
2011,05,20,06,48,9.30
2011,05,20,06,49,9.30
2011,05,20,06,50,9.30
2011,05,20,06,51,9.40
2011,05,20,06,52,9.40
2011,05,20,06,53,9.50
2011,05,20,06,54,9.50
2011,05,20,06,55,9.60
2011,05,20,06,56,9.60
2011,05,20,06,57,9.60
2011,05,20,06,58,9.70
2011,05,20,06,59,9.80
2011,05,20,07,00,9.80
2011,05,20,07,01,9.90
2011,05,20,07,02,9.90
2011,05,20,07,03,9.90
2011,05,20,07,04,10.00
2011,05,20,07,05,10.00
2011,05,20,07,06,10.00
2011,05,20,07,07,10.00
2011,05,20,07,08,10.00
2011,05,20,07,09,10.10
2011,05,20,07,10,10.10
2011,05,20,07,11,10.10
2011,05,20,07,12,10.20
2011,05,20,07,13,10.20
2011,05,20,07,14,10.30
2011,05,20,07,15,10.30
2011,05,20,07,16,10.40
2011,05,20,07,17,10.50
2011,05,20,07,18,10.50
2011,05,20,07,19,10.60
2011,05,20,07,20,10.60
2011,05,20,07,21,10.60
2011,05,20,07,22,10.70
2011,05,20,07,23,10.70
2011,05,20,07,24,10.70
2011,05,20,07,25,10.80
2011,05,20,07,26,10.80
2011,05,20,07,27,10.80
2011,05,20,07,28,10.80
2011,05,20,07,29,10.80
2011,05,20,07,30,10.90
2011,05,20,07,31,10.90
2011,05,20,07,32,10.90
2011,05,20,07,33,10.90
2011,05,20,07,34,10.90
2011,05,20,07,35,10.90
2011,05,20,07,36,10.90
2011,05,20,07,37,10.90
2011,05,20,07,38,11.00
2011,05,20,07,39,11.00
2011,05,20,07,40,11.00
2011,05,20,07,41,10.90
2011,05,20,07,42,10.90
2011,05,20,07,43,10.90
2011,05,20,07,44,11.00
2011,05,20,07,45,11.00
2011,05,20,07,46,10.90
2011,05,20,07,47,10.90
2011,05,20,07,48,11.00
2011,05,20,07,49,11.00
2011,05,20,07,50,11.10
2011,05,20,07,51,11.10
2011,05,20,07,52,11.10
2011,05,20,07,53,11.10
2011,05,20,07,54,11.20
2011,05,20,07,55,11.20
2011,05,20,07,56,11.20
2011,05,20,07,57,11.20
2011,05,20,07,58,11.20
2011,05,20,07,59,11.30
2011,05,20,08,00,11.30
2011,05,20,08,01,11.40
2011,05,20,08,02,11.40
2011,05,20,08,03,11.40
2011,05,20,08,04,11.40
2011,05,20,08,05,11.40
2011,05,20,08,06,11.40
2011,05,20,08,07,11.30
2011,05,20,08,08,11.40
2011,05,20,08,09,11.40
2011,05,20,08,10,11.40
2011,05,20,08,11,11.40
2011,05,20,08,12,11.40
2011,05,20,08,13,11.40
2011,05,20,08,14,11.30
2011,05,20,08,15,11.30
2011,05,20,08,16,11.20
2011,05,20,08,17,11.10
2011,05,20,08,18,11.00
2011,05,20,08,19,11.00
2011,05,20,08,20,11.00
2011,05,20,08,21,11.00
2011,05,20,08,22,11.00
2011,05,20,08,23,11.00
2011,05,20,08,24,11.10
2011,05,20,08,25,11.10
2011,05,20,08,26,11.10
2011,05,20,08,27,11.10
2011,05,20,08,28,11.10
2011,05,20,08,29,11.10
2011,05,20,08,30,11.20
2011,05,20,08,31,11.20
2011,05,20,08,32,11.30
2011,05,20,08,33,11.30
2011,05,20,08,34,11.40
2011,05,20,08,35,11.40
2011,05,20,08,36,11.50
2011,05,20,08,37,11.50
2011,05,20,08,38,11.60
2011,05,20,08,39,11.60
2011,05,20,08,40,11.70
2011,05,20,08,41,11.70
2011,05,20,08,42,11.70
2011,05,20,08,43,11.70
2011,05,20,08,44,11.70
2011,05,20,08,45,11.80
2011,05,20,08,46,11.80
2011,05,20,08,47,11.90
2011,05,20,08,48,11.90
2011,05,20,08,49,12.00
2011,05,20,08,50,12.00
2011,05,20,08,51,12.10
2011,05,20,08,52,12.20
2011,05,20,08,53,12.20
2011,05,20,08,54,12.20
2011,05,20,08,55,12.20
2011,05,20,08,56,12.20
2011,05,20,08,57,12.20
2011,05,20,08,58,12.20
2011,05,20,08,59,12.20
2011,05,20,09,00,12.20
2011,05,20,09,01,12.20
2011,05,20,09,02,12.30
2011,05,20,09,03,12.30
2011,05,20,09,04,12.30
2011,05,20,09,05,12.30
2011,05,20,09,06,12.30
2011,05,20,09,07,12.30
2011,05,20,09,08,12.40
2011,05,20,09,09,12.40
2011,05,20,09,10,12.50
2011,05,20,09,11,12.50
2011,05,20,09,12,12.40
2011,05,20,09,13,12.40
2011,05,20,09,14,12.40
2011,05,20,09,15,12.30
2011,05,20,09,16,12.10
2011,05,20,09,17,12.00
2011,05,20,09,18,11.90
2011,05,20,09,19,11.90
2011,05,20,09,20,11.90
2011,05,20,09,21,11.90
2011,05,20,09,22,11.90
2011,05,20,09,23,12.00
2011,05,20,09,24,12.10
2011,05,20,09,25,12.20
2011,05,20,09,26,12.30
2011,05,20,09,27,12.40
2011,05,20,09,28,12.50
2011,05,20,09,29,12.60
2011,05,20,09,30,12.70
2011,05,20,09,31,12.80
2011,05,20,09,32,12.80
2011,05,20,09,33,12.90
2011,05,20,09,34,12.90
2011,05,20,09,35,12.90
2011,05,20,09,36,13.00
2011,05,20,09,37,13.00
2011,05,20,09,38,13.10
2011,05,20,09,39,13.10
2011,05,20,09,40,13.10
2011,05,20,09,41,13.20
2011,05,20,09,42,13.20
2011,05,20,09,43,13.30
2011,05,20,09,44,13.30
2011,05,20,09,45,13.30
2011,05,20,09,46,13.40
2011,05,20,09,47,13.50
2011,05,20,09,48,13.60
2011,05,20,09,49,13.60
2011,05,20,09,50,13.70
2011,05,20,09,51,13.60
2011,05,20,09,52,13.70
2011,05,20,09,53,13.60
2011,05,20,09,54,13.60
2011,05,20,09,55,13.60
2011,05,20,09,56,13.70
2011,05,20,09,57,13.70
2011,05,20,09,58,13.80
2011,05,20,09,59,13.90
2011,05,20,10,00,14.00
2011,05,20,10,01,14.00
2011,05,20,10,02,13.90
2011,05,20,10,03,13.80
2011,05,20,10,04,13.90
2011,05,20,10,05,13.90
2011,05,20,10,06,14.00
2011,05,20,10,07,14.00
2011,05,20,10,08,13.90
2011,05,20,10,09,13.80
2011,05,20,10,10,13.70
2011,05,20,10,11,13.70
2011,05,20,10,12,13.70
2011,05,20,10,13,13.70
2011,05,20,10,14,13.70
2011,05,20,10,15,13.80
2011,05,20,10,16,14.00
2011,05,20,10,17,14.20
2011,05,20,10,18,14.30
2011,05,20,10,19,14.40
2011,05,20,10,20,14.40
2011,05,20,10,21,14.40
2011,05,20,10,22,14.50
2011,05,20,10,23,14.50
2011,05,20,10,24,14.60
2011,05,20,10,25,14.50
2011,05,20,10,26,14.40
2011,05,20,10,27,14.40
2011,05,20,10,28,14.40
2011,05,20,10,29,14.30
2011,05,20,10,30,14.40
2011,05,20,10,31,14.40
2011,05,20,10,32,14.40
2011,05,20,10,33,14.40
2011,05,20,10,34,14.30
2011,05,20,10,35,14.30
2011,05,20,10,36,14.30
2011,05,20,10,37,14.40
2011,05,20,10,38,14.50
2011,05,20,10,39,14.60
2011,05,20,10,40,14.70
2011,05,20,10,41,14.80
2011,05,20,10,42,14.80
2011,05,20,10,43,14.70
2011,05,20,10,44,14.60
2011,05,20,10,45,14.50
2011,05,20,10,46,14.40
2011,05,20,10,47,14.50
2011,05,20,10,48,14.60
2011,05,20,10,49,14.70
2011,05,20,10,50,15.00
2011,05,20,10,51,15.00
2011,05,20,10,52,15.30
2011,05,20,10,53,15.40
2011,05,20,10,54,15.50
2011,05,20,10,55,15.50
2011,05,20,10,56,15.50
2011,05,20,10,57,15.50
2011,05,20,10,58,15.50
2011,05,20,10,59,15.40
2011,05,20,11,00,15.40
2011,05,20,11,01,15.40
2011,05,20,11,02,15.40
2011,05,20,11,03,15.50
2011,05,20,11,04,15.50
2011,05,20,11,05,15.50
2011,05,20,11,06,15.50
2011,05,20,11,07,15.30
2011,05,20,11,08,15.20
2011,05,20,11,09,15.10
2011,05,20,11,10,15.00
2011,05,20,11,11,15.00
2011,05,20,11,12,15.10
2011,05,20,11,13,15.20
2011,05,20,11,14,15.30
2011,05,20,11,15,15.40
2011,05,20,11,16,15.50
2011,05,20,11,17,15.70
2011,05,20,11,18,15.70
2011,05,20,11,19,15.60
2011,05,20,11,20,15.60
2011,05,20,11,21,15.40
2011,05,20,11,22,15.20
2011,05,20,11,23,15.20
2011,05,20,11,24,15.20
2011,05,20,11,25,15.20
2011,05,20,11,26,15.20
2011,05,20,11,27,15.30
2011,05,20,11,28,15.30
2011,05,20,11,29,15.20
2011,05,20,11,30,15.10
2011,05,20,11,31,15.00
2011,05,20,11,32,15.00
2011,05,20,11,33,15.00
2011,05,20,11,34,15.00
2011,05,20,11,35,15.00
2011,05,20,11,36,15.10
2011,05,20,11,37,15.20
2011,05,20,11,38,15.30
2011,05,20,11,39,15.40
2011,05,20,11,40,15.50
2011,05,20,11,41,15.70
2011,05,20,11,42,15.80
2011,05,20,11,43,15.90
2011,05,20,11,44,15.90
2011,05,20,11,45,15.80
2011,05,20,11,46,15.80
2011,05,20,11,47,15.70
2011,05,20,11,48,15.70
2011,05,20,11,49,15.70
2011,05,20,11,50,15.70
2011,05,20,11,51,15.70
2011,05,20,11,52,15.70
2011,05,20,11,53,15.70
2011,05,20,11,54,15.70
2011,05,20,11,55,15.70
2011,05,20,11,56,15.70
2011,05,20,11,57,15.80
2011,05,20,11,58,15.70
2011,05,20,11,59,15.60
2011,05,20,12,00,15.60
2011,05,20,12,01,15.70
2011,05,20,12,02,15.80
2011,05,20,12,03,15.90
2011,05,20,12,04,16.00
2011,05,20,12,05,16.10
2011,05,20,12,06,16.20
2011,05,20,12,07,16.20
2011,05,20,12,08,16.20
2011,05,20,12,09,16.10
2011,05,20,12,10,16.10
2011,05,20,12,11,16.20
2011,05,20,12,12,16.20
2011,05,20,12,13,16.10
2011,05,20,12,14,15.80
2011,05,20,12,15,15.70
2011,05,20,12,16,15.70
2011,05,20,12,17,15.80
2011,05,20,12,18,15.90
2011,05,20,12,19,15.90
2011,05,20,12,20,16.00
2011,05,20,12,21,16.10
2011,05,20,12,22,16.00
2011,05,20,12,23,15.90
2011,05,20,12,24,15.90
2011,05,20,12,25,16.00
2011,05,20,12,26,16.00
2011,05,20,12,27,16.00
2011,05,20,12,28,16.00
2011,05,20,12,29,16.10
2011,05,20,12,30,16.20
2011,05,20,12,31,16.30
2011,05,20,12,32,16.20
2011,05,20,12,33,16.20
2011,05,20,12,34,16.20
2011,05,20,12,35,16.40
2011,05,20,12,36,16.50
2011,05,20,12,37,16.60
2011,05,20,12,38,16.80
2011,05,20,12,39,16.80
2011,05,20,12,40,16.90
2011,05,20,12,41,16.80
2011,05,20,12,42,16.80
2011,05,20,12,43,16.80
2011,05,20,12,44,17.00
2011,05,20,12,45,17.10
2011,05,20,12,46,17.10
2011,05,20,12,47,17.10
2011,05,20,12,48,17.10
2011,05,20,12,49,17.20
2011,05,20,12,50,17.20
2011,05,20,12,51,17.20
2011,05,20,12,52,17.20
2011,05,20,12,53,17.20
2011,05,20,12,54,17.20
2011,05,20,12,55,17.30
2011,05,20,12,56,17.40
2011,05,20,12,57,17.50
2011,05,20,12,58,17.70
2011,05,20,12,59,17.80
2011,05,20,13,00,17.90
2011,05,20,13,01,18.00
2011,05,20,13,02,18.10
2011,05,20,13,03,18.30
2011,05,20,13,04,18.40
2011,05,20,13,05,18.50
2011,05,20,13,06,18.70
2011,05,20,13,07,18.80
2011,05,20,13,08,18.80
2011,05,20,13,09,18.80
2011,05,20,13,10,18.80
2011,05,20,13,11,18.80
2011,05,20,13,12,18.80
2011,05,20,13,13,18.80
2011,05,20,13,14,18.80
2011,05,20,13,15,18.70
2011,05,20,13,16,18.60
2011,05,20,13,17,18.60
2011,05,20,13,18,18.60
2011,05,20,13,19,18.50
2011,05,20,13,20,18.50
2011,05,20,13,21,18.50
2011,05,20,13,22,18.40
2011,05,20,13,23,18.20
2011,05,20,13,24,18.20
2011,05,20,13,25,18.10
2011,05,20,13,26,18.10
2011,05,20,13,27,18.10
2011,05,20,13,28,18.10
2011,05,20,13,29,18.20
2011,05,20,13,30,18.30
2011,05,20,13,31,18.30
2011,05,20,13,32,18.40
2011,05,20,13,33,18.40
2011,05,20,13,34,18.30
2011,05,20,13,35,18.30
2011,05,20,13,36,18.30
2011,05,20,13,37,18.30
2011,05,20,13,38,18.30
2011,05,20,13,39,18.20
2011,05,20,13,40,18.10
2011,05,20,13,41,17.90
2011,05,20,13,42,17.90
2011,05,20,13,43,17.80
2011,05,20,13,44,17.90
2011,05,20,13,45,17.90
2011,05,20,13,46,17.80
2011,05,20,13,47,17.80
2011,05,20,13,48,17.80
2011,05,20,13,49,17.70
2011,05,20,13,50,17.70
2011,05,20,13,51,17.70
2011,05,20,13,52,17.70
2011,05,20,13,53,17.80
2011,05,20,13,54,17.90
2011,05,20,13,55,18.00
2011,05,20,13,56,18.00
2011,05,20,13,57,18.10
2011,05,20,13,58,18.20
2011,05,20,13,59,18.30
2011,05,20,14,00,18.30
2011,05,20,14,01,18.20
2011,05,20,14,02,18.10
2011,05,20,14,03,18.00
2011,05,20,14,04,17.90
2011,05,20,14,05,17.70
2011,05,20,14,06,17.70
2011,05,20,14,07,17.60
2011,05,20,14,08,17.50
2011,05,20,14,09,17.40
2011,05,20,14,10,17.30
2011,05,20,14,11,17.20
2011,05,20,14,12,17.20
2011,05,20,14,13,17.20
2011,05,20,14,14,17.20
2011,05,20,14,15,17.30
2011,05,20,14,16,17.30
2011,05,20,14,17,17.30
2011,05,20,14,18,17.30
2011,05,20,14,19,17.40
2011,05,20,14,20,17.40
2011,05,20,14,21,17.50
2011,05,20,14,22,17.60
2011,05,20,14,23,17.60
2011,05,20,14,24,17.70
2011,05,20,14,25,17.80
2011,05,20,14,26,18.00
2011,05,20,14,27,18.00
2011,05,20,14,28,17.90
2011,05,20,14,29,17.90
2011,05,20,14,30,18.00
2011,05,20,14,31,18.10
2011,05,20,14,32,18.10
2011,05,20,14,33,18.20
2011,05,20,14,34,18.30
2011,05,20,14,35,18.40
2011,05,20,14,36,18.40
2011,05,20,14,37,18.40
2011,05,20,14,38,18.40
2011,05,20,14,39,18.40
2011,05,20,14,40,18.30
2011,05,20,14,41,18.20
2011,05,20,14,42,18.00
2011,05,20,14,43,17.90
2011,05,20,14,44,17.80
2011,05,20,14,45,17.70
2011,05,20,14,46,17.60
2011,05,20,14,47,17.50
2011,05,20,14,48,17.50
2011,05,20,14,49,17.40
2011,05,20,14,50,17.40
2011,05,20,14,51,17.40
2011,05,20,14,52,17.40
2011,05,20,14,53,17.50
2011,05,20,14,54,17.50
2011,05,20,14,55,17.60
2011,05,20,14,56,17.60
2011,05,20,14,57,17.70
2011,05,20,14,58,17.70
2011,05,20,14,59,17.80
2011,05,20,15,00,17.80
2011,05,20,15,01,18.00
2011,05,20,15,02,18.00
2011,05,20,15,03,18.10
2011,05,20,15,04,18.10
2011,05,20,15,05,18.20
2011,05,20,15,06,18.20
2011,05,20,15,07,18.20
2011,05,20,15,08,18.30
2011,05,20,15,09,18.40
2011,05,20,15,10,18.50
2011,05,20,15,11,18.60
2011,05,20,15,12,18.70
2011,05,20,15,13,18.80
2011,05,20,15,14,18.90
2011,05,20,15,15,18.90
2011,05,20,15,16,19.00
2011,05,20,15,17,19.00
2011,05,20,15,18,19.00
2011,05,20,15,19,19.00
2011,05,20,15,20,19.10
2011,05,20,15,21,19.10
2011,05,20,15,22,19.30
2011,05,20,15,23,19.30
2011,05,20,15,24,19.30
2011,05,20,15,25,19.30
2011,05,20,15,26,19.40
2011,05,20,15,27,19.30
2011,05,20,15,28,19.30
2011,05,20,15,29,19.30
2011,05,20,15,30,19.30
2011,05,20,15,31,19.30
2011,05,20,15,32,19.30
2011,05,20,15,33,19.30
2011,05,20,15,34,19.30
2011,05,20,15,35,19.20
2011,05,20,15,36,19.20
2011,05,20,15,37,19.10
2011,05,20,15,38,19.00
2011,05,20,15,39,18.90
2011,05,20,15,40,18.90
2011,05,20,15,41,18.80
2011,05,20,15,42,18.90
2011,05,20,15,43,18.90
2011,05,20,15,44,18.90
2011,05,20,15,45,18.90
2011,05,20,15,46,18.80
2011,05,20,15,47,18.80
2011,05,20,15,48,18.80
2011,05,20,15,49,18.70
2011,05,20,15,50,18.70
2011,05,20,15,51,18.60
2011,05,20,15,52,18.60
2011,05,20,15,53,18.70
2011,05,20,15,54,18.70
2011,05,20,15,55,18.80
2011,05,20,15,56,18.80
2011,05,20,15,57,18.90
2011,05,20,15,58,19.00
2011,05,20,15,59,19.00
2011,05,20,16,00,19.00
2011,05,20,16,01,19.10
2011,05,20,16,02,19.10
2011,05,20,16,03,19.10
2011,05,20,16,04,19.20
2011,05,20,16,05,19.20
2011,05,20,16,06,19.20
2011,05,20,16,07,19.20
2011,05,20,16,08,19.20
2011,05,20,16,09,19.20
2011,05,20,16,10,19.20
2011,05,20,16,11,19.10
2011,05,20,16,12,19.10
2011,05,20,16,13,19.10
2011,05,20,16,14,19.00
2011,05,20,16,15,19.00
2011,05,20,16,16,19.00
2011,05,20,16,17,19.00
2011,05,20,16,18,19.00
2011,05,20,16,19,19.00
2011,05,20,16,20,19.00
2011,05,20,16,21,19.00
2011,05,20,16,22,19.00
2011,05,20,16,23,19.00
2011,05,20,16,24,19.10
2011,05,20,16,25,19.20
2011,05,20,16,26,19.20
2011,05,20,16,27,19.30
2011,05,20,16,28,19.30
2011,05,20,16,29,19.30
2011,05,20,16,30,19.30
2011,05,20,16,31,19.20
2011,05,20,16,32,19.20
2011,05,20,16,33,19.30
2011,05,20,16,34,19.30
2011,05,20,16,35,19.30
2011,05,20,16,36,19.30
2011,05,20,16,37,19.30
2011,05,20,16,38,19.30
2011,05,20,16,39,19.20
2011,05,20,16,40,19.20
2011,05,20,16,41,19.20
2011,05,20,16,42,19.20
2011,05,20,16,43,19.30
2011,05,20,16,44,19.30
2011,05,20,16,45,19.40
2011,05,20,16,46,19.40
2011,05,20,16,47,19.40
2011,05,20,16,48,19.30
2011,05,20,16,49,19.20
2011,05,20,16,50,19.20
2011,05,20,16,51,19.10
2011,05,20,16,52,19.00
2011,05,20,16,53,19.00
2011,05,20,16,54,19.00
2011,05,20,16,55,18.90
2011,05,20,16,56,18.90
2011,05,20,16,57,19.00
2011,05,20,16,58,19.00
2011,05,20,16,59,19.10
2011,05,20,17,00,19.00
2011,05,20,17,01,19.00
2011,05,20,17,02,19.00
2011,05,20,17,03,18.90
2011,05,20,17,04,18.90
2011,05,20,17,05,18.90
2011,05,20,17,06,18.90
2011,05,20,17,07,18.90
2011,05,20,17,08,19.00
2011,05,20,17,09,19.00
2011,05,20,17,10,19.10
2011,05,20,17,11,19.20
2011,05,20,17,12,19.20
2011,05,20,17,13,19.20
2011,05,20,17,14,19.20
2011,05,20,17,15,19.30
2011,05,20,17,16,19.30
2011,05,20,17,17,19.30
2011,05,20,17,18,19.30
2011,05,20,17,19,19.40
2011,05,20,17,20,19.40
2011,05,20,17,21,19.40
2011,05,20,17,22,19.40
2011,05,20,17,23,19.40
2011,05,20,17,24,19.30
2011,05,20,17,25,19.30
2011,05,20,17,26,19.30
2011,05,20,17,27,19.20
2011,05,20,17,28,19.10
2011,05,20,17,29,19.00
2011,05,20,17,30,19.00
2011,05,20,17,31,19.00
2011,05,20,17,32,19.00
2011,05,20,17,33,19.00
2011,05,20,17,34,19.00
2011,05,20,17,35,19.00
2011,05,20,17,36,19.10